Regional Weather Roundup
Issued by NWS Cleveland, OH

Home | Current Version | Previous Version | Graphics & Text | Print | Product List | Glossary On
Versions: 1 2 3 4 5 6 7 8 9 10 11 12 13 14 15 16 17 18 19 20 21 22 23 24 25 26 27 28 29 30 31 32 33 34 35 36 37 38 39 40 41 42 43 44 45 46 47 48 49 50
000
ASUS41 KCLE 020702
RWRCLE
OHIO REGIONAL WEATHER ROUNDUP
NATIONAL WEATHER SERVICE CLEVELAND, OH
200 AM EST MON MAR 02 2015

NOTE: "FAIR" INDICATES FEW OR NO CLOUDS BELOW 12,000 FEET WITH NO
SIGNIFICANT WEATHER AND/OR OBSTRUCTIONS TO VISIBILITY.

OHZ001>008-015>018-024>027-034-035-043-044-020800-
   NORTHWEST OHIO

CITY           SKY/WX    TMP DP  RH WIND       PRES   REMARKS
DEFIANCE       CLOUDY    22  16  78 W7        30.31R WCI  13
FINDLAY        CLOUDY    23  18  81 W14       30.28R WCI  11
TOLEDO EXPRESS CLOUDY    22  17  81 W12       30.28R WCI  10
TOLEDO EXEC    CLOUDY    23  17  78 W14       30.29R WCI  11
LIMA           CLOUDY    21  16  81 W17       30.30R WCI   7
$$

OHZ009>014-019>023-028>033-038-089-020800-
   NORTHEAST OHIO

CITY           SKY/WX    TMP DP  RH WIND       PRES   REMARKS
CLE-HOPKINS    FLURRIES  22  17  81 W16       30.28R WCI   8
CLE-LAKEFRONT  CLOUDY    22  17  81 W20       30.26R WCI   7
CUY CO. ARPT   NOT AVBL
LORAIN-ELYRIA  CLOUDY    21  17  84 NW16G26   30.27R WCI   7
ASHTABULA      CLOUDY    22  17  81 W12       30.22R WCI  10
AKRON-CANTON   CLOUDY    23  18  81 NW14      30.21F HAZE    WCI  11
WOOSTER        CLOUDY    22  19  89 NW12      30.24S WCI  10
MANSFIELD      CLOUDY    22  19  89 W16G26    30.23F WCI   8
YOUNGSTOWN     FLURRIES  24  19  81 NW15G21   30.19R WCI  11
$$

OHZ042-051>053-060>062-070>072-077>081-020800-
  SOUTHWEST OHIO

CITY           SKY/WX    TMP DP  RH WIND       PRES   REMARKS
CINC-COVINGTON CLOUDY    29  22  75 NW17      30.36R WCI  17
CINC-LUNKEN    CLOUDY    30  23  75 NW9       30.39R WCI  22
HAMILTON       CLOUDY    27  20  75 NW12      30.39R WCI  17
DAYTON         CLOUDY    23  18  81 W16       30.34R WCI  10
WRIGHT-PAT AFB MOCLDY    25  20  81 W12       30.34R WCI  14
DAYTON GENERAL MOCLDY    26  21  81 W12       30.33R WCI  16
WILMINGTON     CLOUDY    28  22  78 NW14      30.32R WCI  17
$$

OHZ036-037-039>041-045>050-054>059-063>069-073>076-082>088-020800-
  CENTRAL AND SOUTHEAST OHIO

CITY           SKY/WX    TMP DP  RH WIND       PRES   REMARKS
COLUMBUS       NOT AVBL
OSU AIRPORT    NOT AVBL
BOLTON FIELD   NOT AVBL
RICKENBACK AFB NOT AVBL
NEWARK         CLOUDY    28  22  78 NW10      30.27R WCI  19
MARION         CLOUDY    22  18  85 NW13      30.28S WCI  10
LANCASTER      CLOUDY    29  24  82 NW13      30.29R HAZE    WCI  19
ZANESVILLE     NOT AVBL
NEW PHILLY     CLOUDY    29  23  78 NW12      30.24S WCI  19
$$



USA.gov is the U.S. government's official web portal to all federal, state and local government web resources and services.